GFSNW_sfc_thetae_231.txt.gz
Theta_e
318 318 317 314 310 308 308 303 300 306 307 299 298 293 293 294 294 295 293 293 291 290 290 288 288 288 290 294 293 289 292 288 283 287 291 291 290 287 288 282 281 283 280 280
317 317 317 313 307 306 304 303 298 307 306 296 294 293 292 294 293 292 292 291 292 292 289 286 289 289 293 294 293 291 292 286 281 284 286 288 286 288 288 288 285 280 278 281
317 316 316 313 306 304 304 300 298 303 301 298 295 292 290 290 294 293 293 292 292 290 288 291 288 288 292 293 292 292 292 287 283 280 284 286 283 285 287 286 280 281 281 283
317 316 315 313 308 304 303 297 296 294 298 296 294 291 291 289 289 293 293 291 291 289 285 287 287 289 290 292 290 291 289 282 284 285 286 285 284 284 284 283 284 280 282 282
318 316 315 313 309 305 306 295 292 294 293 291 291 288 292 290 290 289 289 288 289 290 287 288 285 288 288 287 288 287 288 281 283 279 282 282 279 281 282 283 283 283 283 282
317 316 314 312 308 310 301 295 294 294 290 288 288 290 291 288 289 290 291 290 288 288 290 291 291 291 290 290 286 284 283 281 279 276 280 279 275 280 280 281 283 282 278 283
317 316 314 312 308 311 306 297 294 293 292 287 287 287 287 286 288 286 289 290 287 290 292 292 291 288 287 287 286 287 282 280 279 275 277 271 279 285 285 282 284 284 284 283
316 316 315 313 309 308 302 298 296 293 292 287 285 285 285 287 287 287 289 291 293 292 290 284 284 282 281 282 282 282 283 281 276 273 274 278 278 280 281 279 281 284 282 282
313 314 315 314 311 309 300 297 299 296 291 288 287 285 286 285 284 286 287 289 291 290 286 283 279 279 281 279 279 282 281 282 277 275 271 271 278 281 283 283 276 282 281 281
312 312 313 314 312 309 302 297 299 296 293 291 290 287 286 289 287 285 286 286 286 288 284 280 279 279 281 276 275 275 276 277 275 275 274 278 279 281 284 275 275 282 282 282
312 312 312 313 313 309 302 296 299 297 293 289 290 291 288 287 287 285 286 284 285 283 281 280 281 279 279 277 279 278 277 276 275 277 274 272 282 281 277 279 282 282 282 281
311 312 312 313 313 307 301 294 298 298 294 292 293 294 294 292 292 288 286 285 284 285 282 282 282 279 279 278 275 281 277 281 279 279 278 281 282 281 283 282 280 281 280 280
311 311 312 313 311 306 303 297 297 295 290 288 288 288 293 292 291 293 286 286 287 286 288 285 283 278 281 276 277 278 280 281 279 278 279 279 281 283 283 282 280 281 280 280
310 312 312 312 308 305 300 297 298 296 292 289 286 289 288 289 290 293 293 290 290 289 288 285 282 279 283 279 278 277 279 279 278 278 280 280 281 282 282 280 281 280 280 279
309 311 311 309 305 302 298 296 294 295 294 288 283 286 286 287 289 291 292 290 288 286 283 282 281 284 281 282 280 278 280 279 276 276 279 279 280 281 281 278 278 278 278 278
308 309 308 305 301 300 296 290 295 293 293 286 281 284 283 286 288 288 288 289 288 287 284 283 284 284 282 277 276 279 280 280 280 279 280 279 280 280 280 278 278 278 278 278
308 308 305 302 301 295 291 291 294 293 292 285 278 279 283 286 286 286 286 286 286 286 284 282 282 281 282 279 275 278 280 280 280 280 278 278 279 277 278 278 278 279 278 279
308 305 302 299 298 295 290 293 293 293 287 288 279 278 280 284 281 281 285 283 285 284 283 282 280 281 281 276 279 279 279 279 278 278 278 277 278 278 278 278 278 276 276 277
303 300 297 293 290 287 288 292 292 291 289 283 281 277 276 283 282 284 283 284 278 283 279 279 280 278 275 277 278 278 277 276 276 277 278 277 276 276 276 276 276 275 275 276
299 293 288 283 287 294 292 289 286 286 283 283 280 282 277 282 282 280 280 281 279 275 279 282 278 277 278 278 278 278 277 276 276 273 274 274 274 274 275 275 276 276 276 276
289 284 283 289 291 287 284 279 279 279 277 280 280 280 278 283 279 279 282 278 278 273 276 276 276 275 275 277 276 276 276 276 275 276 276 276 275 274 274 274 275 276 275 275
289 287 289 288 284 281 279 276 275 275 275 277 278 279 281 281 283 280 278 276 275 271 279 275 272 273 275 276 275 275 275 275 275 276 275 275 274 275 274 274 275 275 275 275
287 284 281 281 276 274 274 270 271 271 276 278 278 277 280 280 281 277 277 273 272 277 273 272 273 275 275 275 275 275 275 275 274 273 274 273 273 274 274 273 274 274 274 275
281 279 273 276 271 275 276 276 276 277 280 279 280 277 278 278 276 276 273 274 275 270 269 271 273 274 274 274 274 274 273 273 272 272 270 270 270 271 273 273 273 273 273 274
279 280 272 272 275 275 275 277 277 277 280 278 277 277 278 275 272 274 273 270 269 271 271 273 274 273 272 272 272 272 271 270 269 270 269 267 268 269 270 271 271 272 273 273
278 277 273 276 275 274 276 277 275 278 278 279 279 274 272 270 272 271 271 270 269 271 273 274 274 272 271 270 270 269 269 269 269 270 269 270 268 267 268 269 271 271 272 272
276 274 279 278 278 276 276 278 276 277 278 275 275 272 270 270 270 269 271 271 272 273 273 274 272 271 270 269 269 270 270 270 269 269 269 269 270 268 269 269 271 272 272 273

GFSNW_sfc_thetae_237.txt.gz
Theta_e
317 317 317 317 315 310 306 300 296 307 303 293 289 285 290 294 292 294 292 290 289 286 286 283 283 283 286 290 289 285 287 283 277 281 285 287 284 282 283 277 276 280 278 278
316 316 316 317 314 308 298 295 294 302 302 288 286 289 292 293 292 290 290 289 291 289 286 283 284 286 291 291 289 286 286 279 274 278 281 284 281 284 285 285 283 278 276 278
316 316 316 316 314 309 300 296 293 295 295 292 290 288 288 288 292 291 291 290 290 287 285 286 284 285 290 290 290 294 290 282 278 276 279 281 279 281 283 283 278 279 279 281
317 316 315 315 314 308 304 295 291 290 289 289 289 288 289 288 289 292 291 288 288 286 282 284 283 285 286 289 292 287 285 278 279 280 280 280 279 279 280 279 281 277 280 281
317 316 315 315 313 308 303 297 294 290 289 290 288 289 289 290 290 290 289 288 289 288 286 286 284 284 283 283 284 282 284 277 278 276 278 277 277 279 279 279 279 279 279 277
317 316 314 314 313 309 302 294 293 297 294 287 289 290 292 290 290 290 291 290 287 287 288 285 285 285 286 285 281 280 280 277 275 272 276 276 274 278 279 279 279 279 275 278
317 315 314 314 313 310 306 299 296 297 293 290 289 292 289 288 288 286 289 290 288 290 291 289 287 285 285 283 283 283 280 277 276 271 273 268 277 282 282 279 280 280 281 279
316 316 315 314 313 311 306 300 300 298 293 292 290 289 287 288 288 287 288 290 291 291 290 283 279 279 278 278 279 279 279 277 275 271 270 275 277 277 276 275 275 279 277 278
313 315 315 314 314 312 304 300 304 301 294 291 294 290 289 288 286 287 288 290 291 290 285 281 277 276 277 275 275 279 279 279 275 275 271 270 274 278 280 279 271 278 278 277
311 311 312 313 314 312 304 299 302 300 295 293 292 291 290 290 289 289 287 286 286 288 282 279 278 275 278 275 274 273 274 274 273 274 273 275 276 278 280 271 272 278 278 276
310 311 311 311 312 309 305 297 300 301 296 291 292 294 290 289 290 288 288 286 284 282 279 279 278 276 276 272 274 275 274 274 272 274 272 270 278 278 275 276 279 278 277 276
309 310 311 311 312 308 303 295 300 299 296 291 293 293 293 293 292 290 288 287 285 285 282 282 282 279 277 274 273 278 275 278 278 276 277 279 279 278 278 279 277 276 276 277
309 310 310 311 311 308 303 296 297 296 291 288 289 289 292 292 289 292 286 286 288 285 288 285 283 279 279 275 273 275 278 279 277 278 277 277 278 277 278 277 276 277 277 276
308 309 310 311 311 306 302 297 298 297 293 288 284 289 286 289 290 293 292 289 290 289 288 284 282 279 281 276 277 275 277 277 275 275 277 276 276 276 277 277 277 277 277 276
307 307 309 310 309 304 299 297 296 296 294 287 281 283 283 286 288 291 291 290 288 286 283 282 280 281 279 277 277 275 277 276 274 273 275 274 274 275 276 275 275 276 275 275
306 306 307 309 305 302 298 292 294 293 292 286 280 281 280 285 288 290 290 289 289 285 282 280 281 281 279 275 273 276 276 277 277 274 275 276 277 276 276 275 275 276 276 275
306 306 307 305 303 295 294 290 292 294 293 286 279 274 280 283 283 284 284 286 283 282 281 278 278 278 280 274 271 275 276 276 276 275 275 275 275 273 275 275 276 276 275 275
306 307 305 301 298 296 289 290 294 293 288 287 275 272 276 282 279 279 282 280 280 279 279 279 276 277 276 271 274 275 276 276 275 275 276 275 275 275 274 275 275 273 273 274
304 301 299 293 290 288 286 295 293 291 288 279 280 272 272 280 280 280 280 280 273 280 275 276 277 275 270 275 274 273 274 273 273 274 275 274 273 273 273 273 273 272 272 273
300 293 288 283 287 294 293 288 285 283 282 281 274 278 274 279 278 276 276 275 273 269 275 279 272 274 274 274 273 273 273 274 273 270 272 272 271 272 271 271 271 272 272 273
289 284 282 288 291 286 284 277 273 268 269 276 277 277 274 280 275 274 279 271 270 266 273 273 271 272 272 274 273 274 273 273 272 274 274 273 271 269 270 270 271 272 272 271
289 288 289 286 283 279 276 272 273 271 272 274 274 277 278 277 281 275 273 271 270 265 276 268 266 270 274 273 272 272 272 272 272 272 272 271 271 270 269 270 269 270 270 271
289 285 281 279 275 272 271 267 267 268 274 275 276 274 275 274 276 270 270 265 266 272 266 265 266 271 272 271 272 272 272 272 272 271 271 270 269 270 269 268 269 268 268 269
283 279 275 274 270 270 272 273 272 274 276 276 275 272 273 271 271 268 265 268 269 260 259 262 264 266 268 270 271 271 268 269 269 268 267 266 267 267 269 268 266 265 267 268
280 281 274 271 272 271 271 271 274 274 276 274 272 271 271 266 266 266 266 262 258 262 262 264 264 264 264 263 265 265 265 264 263 263 261 260 262 264 265 265 264 266 268 268
277 272 269 273 270 269 271 271 275 273 272 272 271 266 264 263 265 261 261 260 260 263 264 265 265 262 260 260 261 262 261 259 259 260 259 262 260 261 263 262 263 264 266 267
274 269 273 272 271 271 272 276 270 270 272 267 267 263 265 263 259 259 261 261 263 265 270 266 262 262 261 259 261 264 262 261 260 259 259 260 263 257 259 263 263 264 265 264

GFSNW_sfc_thetae_243.txt.gz
Theta_e
317 316 316 316 316 311 305 298 295 304 299 291 285 284 287 293 289 291 290 288 287 284 283 282 281 281 284 288 287 282 285 281 277 280 283 284 283 281 281 275 274 278 276 276
316 316 316 316 315 309 299 295 294 302 301 289 284 286 288 290 289 288 288 288 288 287 284 283 283 283 288 289 286 282 283 279 274 278 280 281 279 281 281 281 280 277 273 274
316 316 316 315 315 311 300 295 294 297 292 289 287 284 286 287 290 289 289 288 288 285 284 284 283 283 287 288 287 294 289 280 278 276 278 279 277 279 280 278 273 274 277 279
317 316 316 315 315 310 302 294 290 290 289 289 287 289 287 286 287 289 289 286 287 286 283 283 282 283 285 287 292 286 284 277 277 280 279 280 280 279 279 276 277 273 277 275
317 316 315 315 314 310 299 295 292 287 286 287 287 289 289 289 288 288 286 286 288 287 286 289 288 286 284 284 283 283 284 278 277 275 278 277 276 277 276 277 277 276 277 276
317 316 314 314 314 309 298 291 289 297 291 286 288 290 291 290 291 289 289 289 289 287 289 288 288 289 288 287 284 283 282 280 277 271 274 275 273 275 277 278 278 276 274 274
316 316 315 314 314 309 301 295 294 295 291 290 290 293 291 290 289 289 288 290 288 289 292 292 289 287 285 284 284 284 280 278 277 270 272 267 275 278 279 277 278 277 276 276
315 315 315 315 314 311 303 296 299 297 295 295 294 291 290 289 289 290 289 290 290 292 290 288 285 280 277 276 277 277 279 278 273 269 268 274 274 275 275 274 275 276 275 276
315 315 315 315 314 313 307 301 306 300 297 294 297 293 291 290 289 288 289 290 292 291 286 283 282 279 278 277 274 278 278 276 274 272 270 269 273 275 277 277 270 275 275 274
311 313 314 314 314 313 308 305 306 304 296 298 296 293 291 294 291 290 288 287 286 288 283 281 280 277 277 275 273 272 273 272 271 271 271 273 276 276 278 271 272 277 276 274
311 311 311 312 313 313 309 300 302 304 298 293 295 296 292 291 292 290 288 288 284 283 282 280 278 276 276 272 273 274 274 271 269 271 269 267 277 277 275 277 278 276 275 274
310 310 310 311 312 312 305 297 301 300 297 291 294 293 292 291 291 293 289 289 285 286 281 277 278 277 274 274 274 274 273 276 273 274 274 277 277 279 279 278 276 274 274 274
308 308 310 311 309 308 304 298 298 298 291 289 291 290 291 292 290 292 289 288 289 286 289 285 283 280 279 276 273 272 276 277 276 277 275 275 276 276 277 275 274 275 275 274
309 309 309 310 309 306 304 299 300 299 295 289 285 291 286 288 290 292 292 290 290 290 289 285 283 281 282 277 276 275 277 276 275 274 273 274 273 274 274 274 275 274 275 275
307 308 309 309 308 305 300 298 298 298 296 288 284 284 284 287 289 291 291 290 288 286 284 283 281 283 281 278 277 275 276 275 273 273 274 273 273 273 275 273 273 274 273 273
305 306 306 308 307 304 300 294 297 296 296 289 283 281 281 286 290 290 289 289 288 286 284 282 283 284 281 275 273 276 274 275 275 274 274 274 274 274 274 273 274 274 273 273
305 305 306 307 305 297 294 292 294 297 296 288 280 276 280 283 285 285 286 287 285 285 283 281 280 279 281 277 273 274 274 274 274 274 273 273 274 272 273 273 273 274 273 272
305 305 306 305 300 297 291 291 295 295 291 289 279 275 277 282 280 280 283 282 282 282 280 279 277 278 278 272 275 273 274 274 273 274 274 273 273 273 272 273 272 270 270 270
305 302 300 295 290 288 288 294 294 292 290 285 280 277 275 281 280 281 280 281 276 279 275 276 277 274 270 275 273 272 273 274 273 274 273 272 271 270 270 270 269 268 269 270
300 294 289 283 287 295 294 290 287 286 284 283 276 278 274 279 279 278 277 275 273 266 274 277 271 273 274 273 273 273 273 273 273 271 271 271 270 269 268 268 269 269 269 269
290 285 283 287 292 288 284 281 280 279 277 279 277 278 275 280 276 276 279 270 269 263 271 272 269 271 272 273 272 273 272 272 271 272 271 270 268 267 267 268 269 269 269 268
290 288 289 287 283 280 280 276 275 273 275 275 276 277 279 278 281 276 275 272 272 267 276 270 267 271 272 272 271 271 271 270 270 270 270 269 270 268 266 268 267 268 268 268
290 285 281 280 277 275 275 269 269 265 273 275 277 275 277 277 277 272 271 268 269 273 268 268 269 271 272 271 271 270 270 270 271 270 270 269 268 269 268 266 267 266 265 266
285 281 276 276 273 272 272 272 274 275 275 277 275 273 274 273 271 270 268 269 270 263 261 265 265 268 269 270 270 270 266 268 268 266 264 265 266 266 267 267 263 263 264 267
283 279 274 275 272 268 267 269 272 274 278 274 272 271 272 267 268 269 268 266 262 265 265 265 264 264 265 263 264 263 263 262 261 261 258 258 260 263 263 263 262 264 266 266
276 273 269 273 272 270 269 270 273 274 274 274 273 267 266 265 267 264 266 265 263 266 264 263 263 262 259 258 259 259 259 257 257 258 258 259 260 259 260 260 261 260 264 265
274 267 274 272 270 270 271 273 273 273 274 270 269 266 266 265 262 262 264 264 265 264 266 266 262 262 260 257 260 262 262 259 258 257 258 258 259 258 257 259 260 260 261 261

GFSNW_sfc_thetae_246.txt.gz
Theta_e
316 317 317 317 316 312 305 298 295 302 298 292 285 284 286 293 289 290 289 287 286 284 283 282 281 281 283 288 286 281 283 280 276 280 282 283 282 280 280 274 273 273 274 276
316 316 316 316 316 310 299 295 295 302 300 289 284 286 288 289 288 287 287 286 287 286 283 283 283 283 288 288 286 283 283 279 274 279 280 281 279 280 280 280 279 274 273 275
316 316 316 316 315 312 300 295 293 297 292 289 286 285 286 286 289 288 288 287 286 284 284 284 283 283 287 288 287 293 288 279 278 276 279 279 278 279 279 278 272 273 276 278
317 316 316 316 315 311 302 293 290 289 290 290 287 288 287 286 287 288 288 285 286 286 283 284 282 283 286 289 293 287 283 280 279 279 279 279 280 280 279 277 278 272 277 275
317 316 315 315 314 311 299 295 292 288 285 287 288 289 288 288 287 288 286 285 288 286 286 290 289 287 286 286 285 285 285 281 279 277 278 277 276 277 276 277 277 276 277 276
317 316 314 314 314 309 298 290 289 296 289 286 288 290 290 290 290 288 289 288 287 285 289 289 289 290 289 288 285 283 282 281 278 276 274 274 272 275 276 277 276 275 273 275
316 315 315 314 314 309 301 294 295 295 289 288 289 292 291 290 290 291 290 290 288 290 292 292 289 286 285 284 284 285 281 279 278 274 272 267 275 276 279 278 278 278 277 276
316 315 314 315 314 311 303 295 298 295 289 290 291 291 290 289 289 290 289 290 290 292 291 288 286 281 278 276 277 277 280 280 275 269 268 273 274 275 275 274 275 276 274 275
315 314 314 314 315 313 306 298 301 299 293 292 295 292 292 291 289 289 289 290 292 291 288 285 283 281 278 277 274 278 278 277 274 271 268 269 273 275 277 276 270 275 275 275
314 314 314 314 314 314 309 307 307 304 297 299 295 294 293 294 292 291 288 287 288 288 285 283 281 280 278 276 275 272 273 272 271 271 269 273 276 276 278 270 272 277 276 275
311 312 312 313 314 313 311 305 304 306 299 296 296 297 293 292 293 290 289 288 286 284 283 283 280 278 277 273 274 274 274 271 269 270 268 267 277 276 274 276 278 278 275 273
310 309 310 310 311 313 311 300 302 302 298 291 294 293 292 291 291 293 289 289 286 287 283 279 279 277 274 274 275 275 275 278 274 274 274 276 275 276 277 278 277 274 273 274
308 308 309 310 310 312 307 299 299 298 292 290 291 289 290 292 291 292 290 289 290 287 289 285 283 281 280 274 273 274 277 278 276 276 275 274 275 275 276 275 273 274 274 274
308 308 308 309 308 306 304 300 300 300 296 290 284 291 285 289 291 293 293 290 291 290 289 285 284 282 284 277 277 276 278 278 275 274 273 273 273 273 273 273 274 274 274 274
307 308 308 308 307 305 301 300 299 299 297 288 284 284 285 288 290 291 292 291 289 286 284 284 282 283 281 279 278 274 278 277 274 274 274 273 272 273 274 272 273 273 273 273
305 305 305 307 306 304 301 294 298 297 297 289 284 282 282 288 290 290 290 290 288 286 284 283 283 284 282 277 273 277 275 275 275 274 273 273 273 273 273 272 273 273 272 272
304 305 305 307 301 297 295 292 294 298 297 289 279 275 281 283 286 285 286 287 285 285 283 282 281 280 282 277 273 275 274 273 273 272 273 272 273 272 272 273 272 273 272 271
305 305 305 302 300 297 292 293 296 297 292 289 280 273 277 283 281 280 283 282 283 282 281 280 278 278 278 274 276 274 273 273 273 273 273 273 273 272 272 271 271 269 269 269
305 302 301 295 290 289 289 295 296 293 292 285 280 277 276 281 280 281 281 281 277 279 275 277 277 274 272 276 274 273 273 273 273 273 272 272 271 270 270 269 269 268 268 269
301 295 290 284 288 294 294 291 288 287 285 284 279 279 276 280 279 278 278 277 276 266 274 277 272 273 274 274 273 274 273 273 273 270 271 271 270 269 267 268 268 268 269 268
291 285 283 287 293 289 286 283 282 281 280 281 277 278 275 280 277 277 280 275 271 264 270 272 269 270 273 272 272 272 272 272 271 272 271 270 268 266 267 267 269 269 268 267
291 288 289 288 284 281 281 277 275 273 275 276 277 277 279 279 282 277 276 272 271 267 275 271 268 272 272 272 271 271 271 271 270 271 270 269 269 268 266 267 266 267 267 267
289 284 281 281 277 274 276 270 269 270 274 276 277 276 277 277 278 273 272 268 268 274 269 269 270 272 272 271 271 270 270 271 271 270 270 269 268 269 267 265 267 265 264 265
285 279 274 276 273 272 273 274 274 275 276 277 276 273 275 274 272 271 269 270 271 265 262 266 267 269 270 270 271 270 267 268 268 265 264 264 266 265 267 266 263 261 263 265
283 278 274 275 272 268 268 270 272 274 277 274 273 272 273 269 268 270 268 266 264 266 267 268 265 265 266 265 264 265 264 262 261 260 258 257 259 262 263 262 261 262 265 265
278 273 270 273 271 268 270 270 272 274 274 274 274 268 267 266 268 265 266 265 265 267 265 264 264 264 261 260 260 260 259 257 257 257 257 259 257 258 258 259 259 259 263 264
275 267 274 272 271 271 272 273 274 274 275 272 271 267 269 267 263 263 266 266 267 266 266 268 266 265 263 259 260 260 260 258 257 256 256 256 256 254 255 259 259 259 261 262

GFSNW_sfc_thetae_249.txt.gz
Theta_e
316 316 317 317 316 312 304 298 295 301 298 293 285 284 286 292 288 289 288 287 286 284 283 283 281 281 283 287 286 282 284 281 278 281 283 283 282 281 281 276 274 275 275 276
316 316 316 316 316 310 299 295 295 301 299 289 284 285 287 288 288 287 287 286 287 285 284 283 283 283 287 288 286 283 285 280 276 280 281 281 280 281 282 280 279 274 273 276
315 315 316 316 315 312 299 295 292 297 292 288 286 285 285 286 289 287 287 287 286 285 284 284 283 283 287 287 286 293 289 282 281 278 280 281 279 280 281 279 273 275 277 279
316 316 315 316 315 312 301 292 289 289 290 290 286 287 287 286 286 288 287 285 286 286 284 284 282 283 286 288 292 288 286 280 280 281 282 281 281 281 280 278 279 275 278 276
317 316 315 315 314 311 298 294 291 287 285 287 287 289 287 288 287 288 286 285 287 286 286 289 288 288 286 288 286 285 286 282 280 278 281 278 276 279 278 279 279 277 278 277
316 316 314 314 314 308 297 289 289 296 289 286 288 290 290 290 290 289 289 288 287 287 289 290 290 290 289 289 286 284 282 282 278 276 275 276 273 276 277 277 277 276 274 276
316 315 315 315 314 309 301 294 295 294 287 287 289 292 292 291 290 289 290 290 289 290 293 292 289 286 285 284 284 285 281 280 279 276 274 268 275 277 279 278 279 278 279 278
316 315 315 315 314 310 303 295 298 294 287 289 290 291 290 288 288 289 289 291 291 293 291 289 287 285 281 276 277 277 280 281 278 271 268 273 275 276 276 275 276 277 277 276
315 315 314 314 314 313 307 298 300 297 291 290 294 291 290 289 287 289 290 290 292 292 290 287 283 282 282 279 275 278 278 279 277 272 269 269 274 276 277 277 271 276 277 277
315 314 314 314 314 313 310 307 303 301 294 296 295 292 291 294 291 292 288 287 288 289 286 284 283 281 281 279 276 273 274 274 274 273 271 273 277 277 278 272 274 277 278 277
312 313 313 313 313 313 312 307 306 306 299 296 297 298 295 292 294 292 289 289 287 285 284 285 284 281 279 276 276 275 274 272 270 270 267 268 277 276 275 277 277 280 276 275
310 310 310 311 313 313 313 303 303 305 301 293 294 292 292 291 292 293 290 291 288 289 287 284 282 279 275 276 276 275 276 279 276 275 276 277 277 277 277 278 277 275 274 274
307 308 309 310 311 312 312 300 299 299 292 290 291 289 289 291 290 293 290 290 291 288 290 285 284 281 280 275 273 276 279 280 277 277 277 277 276 276 276 276 274 274 274 274
307 307 308 309 309 311 305 300 301 301 296 291 284 291 286 289 291 293 293 291 292 291 290 285 284 282 284 279 278 277 280 279 278 275 275 274 274 274 275 274 274 274 274 274
306 308 308 309 307 306 302 300 299 300 299 288 283 285 285 288 291 292 293 291 289 287 284 284 283 284 282 280 279 275 278 279 277 276 275 275 274 274 274 273 272 273 273 272
305 305 305 307 306 304 301 294 298 298 297 288 282 283 283 288 291 289 289 289 288 287 285 284 284 284 283 278 274 278 277 276 276 275 274 274 274 273 272 273 273 273 272 272
304 305 306 304 302 297 294 292 295 298 298 288 278 277 281 284 287 286 286 287 285 285 284 282 281 281 282 278 274 276 275 273 273 274 274 272 273 272 272 272 272 272 272 271
304 305 304 302 300 298 292 293 296 298 293 290 280 273 276 283 281 280 283 282 283 282 281 280 278 279 278 275 277 274 273 273 273 272 273 273 272 272 271 271 270 270 269 269
304 303 300 295 290 290 289 296 296 295 293 285 281 276 273 281 280 281 281 281 277 278 275 277 277 274 273 277 275 273 272 273 273 273 272 272 271 270 270 269 269 268 268 269
302 295 290 285 288 294 294 292 289 287 285 285 279 279 276 280 279 278 278 278 275 266 273 276 272 273 275 274 273 274 274 274 274 271 270 271 270 269 268 268 268 268 268 268
292 286 283 287 293 289 287 284 284 282 281 282 278 278 275 280 277 277 280 275 273 265 271 272 269 270 272 272 271 272 272 272 271 272 271 270 269 267 267 268 268 268 268 267
291 288 289 288 285 282 281 275 276 274 277 278 278 278 279 279 282 277 277 273 272 266 274 270 267 272 272 272 271 271 271 271 270 271 270 269 269 268 266 267 266 266 267 266
290 285 281 280 278 277 276 271 269 271 275 277 277 276 277 278 279 275 273 269 268 273 268 268 271 272 272 271 271 270 270 271 271 270 269 269 268 268 266 265 266 265 263 264
285 280 277 276 273 274 276 275 275 275 277 277 276 274 275 275 273 273 269 270 271 265 263 267 269 270 270 271 271 270 268 269 268 265 265 265 266 265 266 265 261 261 262 265
283 280 274 274 273 272 271 272 274 275 277 275 275 274 275 271 270 271 269 266 264 266 267 269 265 267 268 267 266 266 265 263 261 261 259 258 258 261 262 261 260 261 263 264
279 276 271 273 271 268 270 271 273 275 274 276 276 271 270 268 269 264 266 266 265 269 267 264 264 265 264 264 264 262 260 258 258 258 257 258 256 257 256 257 258 258 261 263
274 268 273 270 269 269 270 273 276 277 277 273 273 270 269 269 266 264 268 267 269 266 266 268 266 267 265 262 264 263 261 259 257 255 255 254 255 252 254 257 257 257 258 257

GFSNW_sfc_thetae_255.txt.gz
Theta_e
317 317 316 317 317 314 312 312 302 311 309 304 301 297 295 295 294 296 295 296 296 296 295 294 294 292 293 295 294 291 292 291 287 291 290 291 290 289 289 285 284 285 282 282
317 316 316 316 317 312 312 307 308 313 309 300 298 295 294 295 294 295 295 294 296 295 295 293 294 293 294 295 294 293 294 290 287 289 287 289 287 289 289 289 287 282 281 284
316 315 315 316 316 313 311 307 301 308 305 301 300 295 295 293 295 295 295 295 295 295 294 294 293 293 293 294 294 293 294 291 289 285 289 292 288 290 290 287 282 283 284 286
317 316 315 316 316 313 312 306 301 300 301 300 300 300 298 294 293 295 296 294 296 296 294 294 293 294 292 293 294 293 290 286 289 290 290 289 288 288 288 287 287 282 285 285
317 316 315 315 315 311 310 303 301 300 299 298 299 297 297 297 295 295 293 293 297 297 297 298 296 296 294 295 292 290 290 286 284 282 287 287 285 287 288 288 287 287 287 286
317 316 314 314 315 312 309 304 302 304 295 299 300 301 299 298 299 297 298 298 297 295 298 299 296 298 296 295 293 289 286 285 281 280 283 282 281 285 286 287 287 286 282 286
317 315 314 314 314 312 313 306 307 303 297 298 299 300 300 299 298 298 296 297 297 296 298 298 296 294 291 291 289 290 285 284 282 280 281 277 284 286 285 286 287 287 286 287
315 316 315 314 314 313 314 309 308 306 298 298 298 299 300 299 297 296 296 296 297 299 297 295 291 289 288 286 284 286 286 285 282 281 282 286 286 282 282 282 283 288 287 287
311 315 315 314 314 313 314 312 313 310 301 297 301 300 301 300 299 296 295 294 298 297 295 291 285 285 288 284 280 283 284 286 283 281 277 278 282 283 285 285 279 286 285 285
309 314 314 314 314 313 314 313 313 311 302 303 303 300 299 303 302 300 295 292 292 295 291 288 285 286 286 283 282 277 280 281 279 281 280 283 284 284 285 278 281 284 285 285
308 309 314 314 314 313 313 313 314 311 306 305 303 304 301 301 303 298 294 294 291 289 287 287 287 285 286 284 288 283 282 280 279 281 279 276 285 283 281 284 285 285 285 283
307 308 310 314 313 312 313 309 313 313 307 299 297 296 295 296 298 303 296 299 293 294 290 288 289 284 283 285 281 286 281 288 284 284 284 285 286 285 284 286 285 283 282 281
306 308 308 311 314 314 313 311 309 303 295 296 294 295 293 295 293 296 296 295 298 295 296 293 288 285 285 280 282 285 286 290 284 284 289 287 286 284 283 283 282 281 280 279
306 308 308 308 311 314 313 304 307 308 299 294 288 291 288 290 292 294 295 294 294 293 292 288 286 285 287 285 286 287 288 286 285 286 289 286 283 283 282 280 280 279 279 278
305 306 307 308 308 309 312 302 305 309 303 290 284 286 287 290 291 293 293 293 291 289 286 285 284 287 286 285 285 285 286 286 284 285 285 284 281 281 281 279 278 278 277 276
304 304 305 307 305 306 303 296 299 299 297 288 285 284 285 289 292 291 291 291 289 289 287 286 286 288 286 283 283 288 290 283 282 283 281 281 280 279 280 278 277 277 276 275
304 304 304 304 301 298 295 293 296 300 298 288 280 280 284 285 286 286 286 287 286 287 286 285 287 286 287 285 282 282 282 280 280 281 280 277 278 277 278 277 276 276 275 275
303 303 302 301 301 299 293 294 299 299 293 290 281 278 282 286 284 283 287 286 286 285 286 285 284 283 284 280 283 280 279 279 279 278 279 279 278 277 276 276 275 274 274 274
303 302 300 296 291 290 290 297 298 296 293 284 284 279 280 285 284 285 284 286 282 282 283 282 282 281 279 282 281 278 278 279 277 277 277 277 276 275 274 274 273 273 273 273
301 298 292 286 287 296 296 293 289 287 285 285 282 284 279 284 283 282 281 283 281 279 280 281 279 279 280 279 279 281 280 279 278 275 274 275 274 274 273 273 273 272 272 272
293 288 287 289 294 291 287 284 284 284 283 283 281 282 279 283 282 280 283 280 279 276 277 277 277 276 277 277 277 279 279 279 278 277 277 277 277 274 273 272 272 272 272 271
292 290 291 289 286 285 284 280 281 282 280 281 281 281 282 282 285 281 280 278 277 275 278 275 274 277 275 276 275 275 276 276 275 275 274 274 273 273 272 272 271 271 271 270
292 286 285 285 283 281 280 277 278 279 280 280 281 279 281 282 282 279 279 276 276 278 274 274 277 275 275 275 274 274 275 275 274 273 273 273 272 272 271 270 271 270 270 270
285 284 280 281 279 281 280 281 281 279 282 281 281 279 279 279 278 278 276 274 276 272 270 273 277 275 275 275 275 274 273 273 272 271 271 270 271 270 270 269 268 267 268 268
284 284 279 279 276 276 276 278 280 280 282 281 279 279 280 277 275 276 273 271 271 273 274 276 275 275 274 273 273 273 272 271 270 269 268 267 267 268 269 268 267 268 268 268
283 280 278 278 279 276 277 278 278 280 281 282 282 277 277 274 275 272 273 273 272 275 275 273 273 272 272 272 272 271 271 270 269 268 267 267 266 265 265 265 266 265 267 267
279 276 279 278 278 279 278 279 279 282 282 279 279 276 274 274 272 272 275 273 275 274 273 273 274 273 271 271 270 269 268 268 268 267 266 266 265 262 264 266 268 266 268 264